Погода в Ийсалми

Финляндия     63°33′13″N   27°12′11″E
темп.,
°C
ветер,
м/с
пор.,
м/с
влажн.,
%
обл.,
%
осадки,
мм/ч
давл.,
гПа
погр.,
м
6 марта, сб
сб623:00−13зюз23950 0.0 101443
02:00−13юз239414 0.0 101371
05:00−11ююз379297 0.0 1009188
08:00−9ю4119199 0.0 1004398
11:00−6ю61394100 0.7 999722
14:00−4ю61394100 3.0 992744
17:00−1ююз41097100 3.1 985578
20:00−5зсз61374100 4.1 984892
7 марта, вс
вс723:00−11зюз388210 0.0 985181
02:00−14з23915 0.0 98557
05:00−16з12930 0.0 98520
08:00−14сз259642 0.0 988133
11:00−6ссв51089100 0.4 993983
14:00−7ссв61084100 0.5 9981029
17:00−8ссв51088100 0.1 1003858
20:00−11ссв4128898 0.1 1008582
8 марта, пн
пн823:00−12ссв3109290 0.0 1011425
02:00−14с389495 0.0 1014238
05:00−17с259697 0.0 1015135
08:00−18ссв239698 0.0 1017108
11:00−14с128426 0.0 1018313
14:00−11ссз138023 0.0 1018501
17:00−13юз119157 0.0 101820
20:00−14юв229378 0.0 101741
9 марта, вт
вт923:00−14юв3795100 0.1 1016231
02:00−14юв4895100 0.5 1016338
05:00−15вюв4994100 0.4 1015335
08:00−17вюв4893100 0.6 1017320
11:00−15в379071 0.0 1018344
14:00−12в368750 0.0 1020445
17:00−15в259120 0.0 1021130
20:00−20в129010 0.0 102320
10 марта, ср
ср1023:00−22вюв11890 0.0 102420
02:00−23юв11898 0.0 102520
05:00−23ююв128722 0.0 102520
08:00−22ю128711 0.0 102523
11:00−15ю25820 0.0 1024262
14:00−11ю37800 0.0 1022445
17:00−12ю26890 0.0 1020184
20:00−15ю310920 0.0 1018247